TIME,DELAY(SENSOR),PRES,T(CTD),SAL,OXYGEN,RAWTEMP,T(OPTODE),TCPHASE,FLUOR,BETA(BETA700),BETA(BETA412),BETA(BETA440),CDOM,C(CSC),ED(ED412.40),ED(ED444.00),ED(ED489.70),ED(ED554.30),LU(LU411.80),LU(LU443.40),LU(LU489.60),LU(LU554.10),COMP,TILTX,TILTX(TILTY),CHECK
1346707426,5809,497.8200073242187500,5.8580999374389650,34.2170982360839840,52.6703109741210940,623.0192260742188000,5.8380889892578125,52.7132987976074200,52,103,87,80,81,15280,2147756306,2147422052,2148005193,2147874989,2147630930,2147075035,2148252608,2147199268,3071,4,13,361
1346707567,5808,486.6900024414062500,5.9159998893737790,34.2086982727050800,54.2075004577636700,621.2393188476562000,5.8959732055664060,52.4750099182128900,53,104,88,80,82,15280,2147752704,2147422336,2148008731,2147870052,2147634459,2147069632,2148249444,2147200283,344,5,13,52175
1346707718,5807,475.3699951171875000,6.0159997940063480,34.1936988830566400,56.9484100341796900,618.1381835937500000,5.9967460632324220,52.0579185485839840,52,104,88,81,80,15276,2147753014,2147420114,2148006491,2147874441,2147634505,2147073929,2148246418,2147202770,578,5,12,34027
1346707880,5808,461.7999877929687500,6.0625000000000000,34.1785011291503900,60.6539688110351560,616.7739257812500000,6.0410518646240230,51.5458488464355500,52,105,86,79,81,15278,2147747876,2147420132,2148005028,2147871515,2147636443,2147078665,2148248374,2147201252,485,4,13,52565
1346707995,5807,450.3999938964844000,6.0427999496459960,34.1469993591308600,64.8398666381836000,617.1904296875000000,6.0275268554687500,51.0080299377441400,52,105,89,81,80,15282,2147751250,2147419547,2148004544,2147872329,2147633289,2147078628,2148247789,2147199762,956,5,13,31025
1346708112,5811,438.4700012207031000,6.1017999649047850,34.1301994323730500,68.5196533203125000,614.7360839843750000,6.1071891784667970,50.5087089538574200,52,104,91,81,81,15281,2147751168,2147418688,2148004946,2147873526,2147634130,2147076982,2148248512,2147200100,732,4,13,4548
1346708215,5805,427.7600097656250000,6.3853001594543460,34.1319007873535160,74.6194229125976600,606.6099853515625000,6.3705291748046875,49.6461715698242200,53,104,89,81,79,15282,2147752045,2147420516,2148009042,2147872685,2147634669,2147080164,2148250358,2147195949,750,5,12,51343
1346708318,5807,417.0100097656250000,6.6308999061584470,34.1385993957519500,79.8017730712890600,599.7017822265625000,6.5939011573791500,48.9284400939941400,52,103,89,79,79,15279,2147753252,2147424475,2148006016,2147872740,2147632512,2147082825,2148245970,2147200228,610,4,13,10120
1346708454,5809,403.4100036621094000,6.9109997749328610,34.1110000610351560,90.9725265502929700,590.6411132812500000,6.8861789703369140,47.5210990905761700,51,105,89,81,79,15279,2147752950,2147421979,2148007936,2147871780,2147632576,2147085641,2148243968,2147202185,3392,4,13,50211
1346708600,5809,392.4500122070312500,7.3232002258300780,34.1138000488281250,102.1818008422851600,577.8707275390625000,7.2968368530273440,46.1171607971191400,50,107,90,80,78,15280,2147748690,2147422747,2148007350,2147872429,2147627986,2147083721,2148239981,2147195593,2748,4,13,10169
1346708760,5802,381.0299987792969000,7.7119998931884770,34.1110992431640600,110.4004974365234400,565.8103027343750000,7.6833171844482420,45.0824584960937500,51,110,89,80,77,15277,2147750738,2147419867,2148007744,2147875355,2147624493,2147082834,2148237961,2147202313,2058,4,13,23323
1346708885,5808,370.3299865722656000,7.9123997688293460,34.0994987487793000,121.0894012451171900,558.7877197265625000,7.9077758789062500,43.9269905090332000,51,105,89,79,77,15278,2147747401,2147421796,2148007533,2147871533,2147623506,2147090825,2148238262,2147201042,787,4,13,15022
1346709012,5807,359.6600036621094000,8.0170001983642580,34.0960998535156250,136.0424041748047000,555.6024780273438000,8.0094451904296880,42.5116500854492200,50,105,91,81,76,15281,2147746368,2147422272,2148003840,2147874395,2147620790,2147090605,2148237156,2147201782,1202,4,13,39445
1346709154,5807,349.1700134277344000,8.5663995742797850,34.1158981323242200,144.3981933593750000,538.6394042968750000,8.5494785308837890,41.5044593811035160,50,110,88,80,76,15275,2147745938,2147420763,2148003876,2147871826,2147621513,2147093805,2148234660,2147202020,1017,4,13,44796
1346709305,5810,338.0899963378906000,8.7068004608154300,34.0970993041992200,156.3354034423828000,533.5161743164062000,8.7121257781982420,40.4480705261230500,50,106,88,82,75,15277,2147746496,2147421312,2148011108,2147873682,2147619520,2147095442,2148234130,2147201170,3001,4,13,38627
1346709453,5811,325.6900024414062500,9.2546997070312500,34.1039009094238300,177.5115051269531200,516.3212280273438000,9.2565326690673830,38.5821113586425800,50,105,87,81,73,15277,2147739556,2147424283,2148013485,2147874578,2147618971,2147102025,2148236361,2147205220,2959,5,13,44975
1346709568,5807,314.4899902343750000,9.5939998626708980,34.1091003417968750,194.5319061279297000,505.9175109863281000,9.5848541259765620,37.2682991027832000,49,105,86,80,72,15277,2147736658,2147423963,2148020928,2147873984,2147617088,2147105344,2148236068,2147200365,3435,4,13,26662
1346709685,5807,303.4299926757812500,9.9518003463745120,34.1232986450195300,199.1746063232422000,494.9277954101562500,9.9308309555053710,36.7894210815429700,50,105,88,81,72,15279,2147740489,2147421028,2148015158,2147872347,2147613193,2147110710,2148230171,2147200694,2688,4,13,46660
1346709812,5808,291.5799865722656000,10.3115997314453120,34.1353988647460940,205.0489044189453000,482.5028076171875000,10.3210096359252930,36.2219696044921900,49,105,86,81,71,15277,2147739520,2147424722,2148034505,2147870729,2147610441,2147113664,2148238354,2147206875,353,4,13,40708
1346709939,5806,280.1199951171875000,10.6478996276855470,34.1473007202148440,209.0713043212890600,472.5848083496094000,10.6317300796508790,35.8181991577148440,49,106,88,80,70,15279,2147736182,2147425444,2148024649,2147874066,2147611766,2147111497,2148230976,2147208630,97,5,13,8403
1346710057,5809,269.2200012207031000,10.9469003677368160,34.1618003845214840,214.8032073974609400,462.6817932128906000,10.9413700103759770,35.3246803283691400,48,104,89,80,69,15276,2147734427,2147431990,2148044498,2147871716,2147608411,2147120000,2148241773,2147207104,1261,4,13,41348
1346710172,5808,258.3900146484375000,11.2301998138427730,34.1795005798339840,223.0415954589843800,451.1828918457031000,11.3001804351806640,34.6800003051757800,49,105,88,81,69,15277,2147732964,2147442797,2148094656,2147872704,2147606272,2147128603,2148261824,2147208758,1897,4,13,41121
1346710287,5810,247.1300048828125000,11.6359996795654300,34.2022018432617200,230.2444000244140600,440.7430114746094000,11.6252803802490230,34.1290817260742200,48,103,88,81,69,15280,2147733760,2147450176,2148118893,2147875465,2147604041,2147131492,2148274166,2147210752,2775,4,13,48561
1346710405,5809,235.6199951171875000,11.9038000106811520,34.2131996154785160,231.0726013183593800,431.4034118652344000,11.9156198501586910,33.9386711120605500,48,104,86,81,68,15277,2147734509,2147445833,2148102345,2147872685,2147601618,2147137298,2148268306,2147210368,3377,4,14,57658
1346710520,5808,225.2400054931640600,12.2433004379272460,34.2065010070800800,223.0464935302734400,421.4750061035156000,12.2237701416015620,34.2081184387207000,48,109,88,82,70,15268,2147732516,2147506331,2148317705,2147872155,2147600393,2147169709,2148376073,2147215680,306,4,13,46823
1346710661,5804,215.0800018310547000,12.9594001770019530,34.2401008605957000,217.0070037841797000,398.1264953613281000,12.9465599060058600,34.1752510070800800,49,104,88,81,68,15271,2147737554,2147543808,2148435081,2147875830,2147601673,2147197860,2148426697,2147221878,3161,4,13,60216
1346710848,5809,204.5299987792968800,13.7011995315551760,34.2839012145996100,217.6414947509765600,373.8908996582031000,13.6943101882934570,33.7689285278320300,48,106,84,80,69,15273,2147738048,2147566546,2148481993,2147876608,2147599707,2147212681,2148447405,2147223451,1002,4,14,26452
1346710953,5808,198.5200042724609400,14.1486997604370120,34.3087997436523440,215.8175048828125000,359.3977966308594000,14.1404104232788090,33.6507492065429700,49,104,89,81,68,15269,2147733065,2147548736,2148397248,2147874349,2147600246,2147203291,2148407990,2147219574,3318,4,14,50623
1346711032,5808,194.4499969482422000,14.4496002197265620,34.3376998901367200,216.0404052734375000,352.0304870605469000,14.3669004440307620,33.5279006958007800,49,105,91,82,69,15267,2147746560,2147656082,2148721709,2147875126,2147602349,2147262043,2148547913,2147233993,2565,4,14,62206
1346711111,5811,190.5000000000000000,14.6843004226684570,34.3610000610351560,215.7575988769531200,341.1375122070312500,14.7014703750610350,33.3814315795898440,48,104,89,80,67,15270,2147742134,2147600457,2148533760,2147873462,2147600539,2147237686,2148465993,2147229202,2971,4,14,52136
1346711190,5808,186.8600006103515600,14.9684000015258790,34.3890991210937500,216.1737976074218800,332.8537902832031000,14.9556703567504880,33.2358398437500000,49,104,89,80,68,15269,2147745782,2147624877,2148590966,2147873938,2147599890,2147254473,2148497435,2147230985,3035,3,14,20440
1346711295,5806,182.7400054931640600,15.4976997375488280,34.4472999572753900,214.9111022949218800,314.5729064941406000,15.5160303115844730,33.0369911193847660,49,105,88,81,67,15270,2147743067,2147608310,2148526528,2147874614,2147594998,2147244992,2148455506,2147228342,1898,3,15,34523
1346711422,5807,179.3999938964843800,15.8297004699707030,34.4921989440918000,215.8645935058593800,304.9902038574219000,15.8094596862792970,32.8453788757324200,49,103,91,80,67,15264,2147773659,2147829403,2149169691,2147876315,2147605293,2147378633,2148764461,2147246262,1787,3,15,6813
1346711597,5807,174.6199951171875000,16.2710990905761720,34.5480003356933600,216.6186065673828000,289.2179870605469000,16.2920398712158200,32.5770301818847660,49,104,90,80,67,15262,2147768512,2147751899,2148901824,2147876544,2147600804,2147337042,2148641481,2147245184,2071,3,15,4957
1346711688,5807,170.4400024414062500,16.6648998260498050,34.5997009277343750,216.8130035400390600,277.1578063964844000,16.6607799530029300,32.3945312500000000,50,105,90,81,67,15261,2147787986,2147848576,2149135076,2147877668,2147605412,2147388800,2148747931,2147249206,1344,3,15,57039
1346711767,5809,166.3600006103515600,16.9062995910644530,34.6338996887207000,217.5142059326172000,269.6856079101562500,16.8891506195068360,32.2505493164062500,50,109,90,81,66,15262,2147778806,2147766189,2148888310,2147875821,2147602450,2147345417,2148627154,2147240960,955,3,15,1440
1346711846,5810,162.0000000000000000,17.2056999206542970,34.6727981567382800,217.6329040527343800,259.4960937500000000,17.2004795074462900,32.1006393432617200,51,105,89,80,65,15256,2147791003,2147818852,2148996516,2147875766,2147610258,2147376402,2148679222,2147245257,933,3,15,39381
1346711916,5808,158.3800048828125000,17.3607006072998050,34.6930999755859400,218.0639953613281200,254.2416992187500000,17.3609790802001950,32.0037193298339840,52,105,88,81,66,15258,2147806866,2147888155,2149154240,2147878070,2147614070,2147420809,2148748269,2147249636,451,3,15,13838
1346711995,5811,154.4499969482422000,17.6615009307861330,34.7290000915527340,217.7342987060547000,245.1293029785156200,17.6393108367919920,31.8941802978515620,52,108,86,80,66,15253,2147840713,2148012982,2149445366,2147879488,2147629156,2147500224,2148896374,2147261522,540,3,15,61720
1346712086,5807,150.9100036621093800,17.9057006835937500,34.7644004821777340,217.9458007812500000,236.8574066162109400,17.8919296264648440,31.7677993774414060,53,108,92,80,66,15253,2147866870,2148100443,2149630592,2147879972,2147638244,2147545718,2148990665,2147267428,814,3,15,19451
1346712227,5807,147.3899993896484400,18.4221000671386720,34.8320999145507800,218.1714935302734400,219.6791992187500000,18.4165191650390620,31.5189990997314450,57,107,90,82,66,15241,2147898889,2148180690,2149788708,2147883291,2147649517,2147598125,2149061385,2147274541,1340,3,15,6468
1346712546,5808,143.1600036621093800,18.9193992614746100,34.9132003784179700,220.2407989501953000,203.8314971923828000,18.9005393981933600,31.1939506530761720,61,110,89,82,65,15243,2148067556,2148679606,2150928850,2147892873,2147717412,2147893046,2149608310,2147312384,905,3,15,38995
1346712673,5810,138.6999969482422000,19.3553009033203120,34.9891014099121100,221.9593048095703000,189.0411987304687500,19.3524093627929700,30.9051609039306640,68,109,91,81,63,15241,2148194212,2148978505,2151550537,2147902464,2147773641,2148069339,2149891254,2147328502,3522,2,15,27447
1346712764,5809,134.8699951171875000,19.7714996337890620,35.0569992065429700,223.5769042968750000,174.1092987060547000,19.8088493347167970,30.6228199005126950,71,111,90,82,63,15233,2148298944,2149214546,2152009152,2147912347,2147817051,2148208100,2150119497,2147350116,3000,3,15,46253
1346712855,5807,130.1900024414062500,20.0911998748779300,35.0788993835449200,223.1719055175781200,164.6239013671875000,20.0989494323730470,30.5168895721435550,83,119,90,83,63,15215,2148492260,2149645083,2152839990,2147929170,2147896886,2148434386,2150467876,2147376576,2790,3,15,5119
1346712922,5809,125.8099975585937500,20.1222991943359380,35.0527992248535160,220.8665924072265600,164.5507965087890600,20.1011905670166000,30.6332092285156250,96,121,91,81,64,15205,2148729673,2150147090,2153783707,2147951945,2147987044,2148668534,2150852662,2147405376,2959,3,15,35785
1346712977,5809,122.1699981689453100,20.2049007415771500,35.0838012695312500,219.5686950683593800,160.6920928955078000,20.2192401885986330,30.6485595703125000,90,119,92,82,64,15200,2148966729,2150619245,2154632109,2147967067,2148074596,2148891346,2151199579,2147432896,2897,3,16,22535
1346713044,5808,117.8899993896484400,20.2511005401611330,35.0644989013671900,223.4727020263672000,159.9454040527343800,20.2420902252197270,30.4397296905517580,97,118,91,83,64,15206,2149306121,2151253421,2155757714,2148005275,2148220534,2149197467,2151669174,2147473344,2867,3,15,519
1346713111,5808,114.1500015258789000,20.3349990844726560,35.0572013854980500,218.4344940185547000,156.9810028076172000,20.3328094482421880,30.6580009460449220,114,127,93,84,63,15176,2149724059,2152012242,2157031862,2148045275,2148358939,2149493641,2152128000,2147517988,2225,3,15,38269
1346713186,5811,111.0400009155273400,20.6539001464843750,35.0929985046386700,217.4360046386718800,148.6295928955078000,20.5884799957275400,30.5987892150878900,123,129,92,85,63,15158,2150154194,2152777115,2158311524,2148083154,2148505051,2149782628,2152569664,2147559405,2199,3,15,25761
1346713501,5810,107.2399978637695300,20.9069004058837900,35.1218986511230500,220.0507049560547000,138.4427947998047000,20.9005298614501950,30.3295898437500000,136,132,92,84,65,15143,2150983661,2154159899,2160438774,2148154038,2148765238,2150239396,2153230372,2147627885,2725,2,15,51853
1346713640,5811,103.1399993896484400,21.4130992889404300,35.1722984313964840,223.3807983398437500,123.6150970458984400,21.3551807403564450,29.9669208526611330,164,134,95,85,62,15094,2152134747,2156062427,2163304539,2148250596,2149145645,2150895378,2154187529,2147728228,3518,3,15,14539
1346713827,5808,98.9800033569336000,21.7220993041992200,35.2069015502929700,229.4593048095703000,112.3641967773437500,21.7005596160888670,29.5225791931152340,183,138,92,87,64,15063,2154116306,2159332498,2167753536,2148397074,2149753609,2151848228,2155486061,2147876059,675,2,15,40231
1346713882,5809,96.8099975585937500,21.7520008087158200,35.2013015747070300,231.9082946777343800,109.9385986328125000,21.7750701904296880,29.3740196228027340,179,138,93,85,60,15062,2155408329,2161419730,2170483840,2148502262,2150156937,2152494189,2156362358,2147973522,515,2,15,22572
1346713937,5809,94.5899963378906200,22.0697002410888670,35.2350006103515600,234.2781066894531200,103.2301025390625000,21.9812393188476560,29.1758594512939450,116,128,94,86,61,15103,2156525696,2163120640,2172572836,2148593947,2150576320,2153135853,2157141979,2148063113,549,2,16,23287
1346713992,5807,92.5899963378906200,22.2341995239257800,35.2407989501953100,235.9091949462890600,95.8984069824218800,22.2067203521728500,29.0060405731201170,105,125,94,86,61,15132,2157809380,2165039414,2175017536,2148729618,2151124800,2154022555,2158182436,2148176493,1095,2,16,2621
1346714047,5806,90.6600036621093800,22.3085994720459000,35.2449989318847660,237.8504943847656200,93.7243270874023400,22.2736206054687500,28.8886909484863280,95,122,92,85,61,15139,2159016603,2166780297,2177194322,2148852260,2151649874,2154855515,2159172379,2148285321,1150,2,15,17258
1346714126,5807,87.3300018310546900,22.3959007263183600,35.2486000061035160,239.1753997802734400,90.0457534790039000,22.3868503570556640,28.7814598083496100,88,126,89,84,60,15133,2161550162,2170233910,2181205577,2149109513,2152855789,2156756882,2161310363,2148512978,1444,2,15,35884
1346714181,5811,84.2900009155273400,22.4603004455566400,35.2472991943359400,240.2496032714843800,87.4741363525390600,22.4660396575927730,28.6999301910400400,91,121,92,84,61,15127,2164336548,2174060790,2186076653,2149462281,2154035227,2158559926,2163302180,2148734756,722,3,15,14797
1346714236,5809,81.5000000000000000,22.5564002990722660,35.2542991638183600,240.9868927001953000,85.4231033325195300,22.5292091369628900,28.6407108306884770,85,125,92,84,60,15133,2166877430,2177127378,2189278162,2149767104,2155179181,2160196580,2165030336,2148930294,441,3,15,26019
1346714291,5805,79.2099990844726600,22.6772994995117200,35.2513008117675800,241.5034027099609400,81.1076126098632800,22.6621894836425780,28.5629501342773440,89,124,93,84,61,15124,2169193316,2179879588,2192056310,2149995556,2156516672,2162095488,2166939684,2149165202,705,3,15,42772
1346714346,5808,77.4599990844726600,22.7103004455566400,35.2503013610839840,242.1101989746093800,79.9783935546875000,22.6969890594482420,28.5216503143310550,84,127,93,85,60,15124,2172043456,2183640411,2196324388,2150303771,2157769060,2163826843,2168624521,2149357174,1063,3,16,1337
1346714401,5807,76.1500015258789000,22.7808990478515620,35.2510986328125000,242.5195007324218800,77.9150466918945300,22.7605991363525400,28.4772796630859380,84,125,95,85,60,15124,2174350381,2186473938,2199243766,2150572608,2158930304,2165347136,2170025097,2149538697,1501,3,16,1856
1346714495,5807,74.3899993896484400,22.8180999755859380,35.2555007934570300,243.6907958984375000,76.2562179565429700,22.8117599487304700,28.4042797088623050,83,124,93,85,61,15129,2178162441,2190878198,2203547894,2151028717,2160939309,2167894976,2172336301,2149799533,1914,2,16,22895
1346714598,5806,72.1399993896484400,22.8353996276855470,35.2594985961914060,244.2165069580078000,75.4358062744140600,22.8370609283447270,28.3707695007324220,82,124,92,85,59,15133,2182716013,2195688786,2207602907,2151342171,2163463332,2171007296,2175082386,2150107364,2041,2,16,47944
1346714665,5808,70.2799987792968800,23.0160999298095700,35.2210998535156250,243.7044982910156200,70.0926666259765600,23.0019092559814450,28.3265094757080080,80,122,92,84,60,15128,2186935140,2200207515,2212216256,2151966482,2165351926,2173241499,2177100699,2150389897,2680,2,15,3623
1346714744,5805,68.3199996948242200,23.3292007446289060,35.2043991088867200,243.2895965576172000,60.2447319030761700,23.3060703277587900,28.2220096588134770,78,124,93,83,60,15130,2191631360,2205712512,2218241444,2152658779,2167925266,2176762477,2180717257,2150827053,218,2,16,42106
1346714835,5808,66.0000000000000000,23.4937992095947270,35.1941986083984400,243.2720031738281200,54.8540000915527340,23.4727401733398440,28.1556205749511720,74,124,93,85,59,15125,2195089837,2209197110,2221294756,2153345590,2170207579,2179420818,2182986934,2151216804,819,1,16,40950
1346714902,5807,63.8600006103515600,23.6900005340576170,35.1787986755371100,242.4461975097656200,48.4306182861328100,23.6715106964111330,28.1125602722167970,74,127,93,85,61,15127,2200632009,2215806363,2228585216,2154382829,2173277330,2183301110,2186710555,2151766930,901,2,15,13474
1346714969,5806,62.2700004577636700,23.7339992523193360,35.1800994873046900,242.2330932617187500,46.5845298767089840,23.7286701202392580,28.0990200042724600,74,122,93,85,58,15121,2204569846,2220465234,2233991533,2155307254,2175140928,2185641243,2188970642,2152103314,511,2,15,57207
1346715084,5806,60.7099990844726560,23.7716999053955080,35.1800003051757800,242.2147064208984400,45.1838607788085940,23.7720508575439450,28.0824108123779300,75,127,93,85,59,15116,2209168256,2226321170,2240802916,2156118564,2177112749,2188229238,2191611072,2152490002,230,2,16,16362
1346715210,5810,57.9700012207031250,23.8868007659912100,35.1754989624023440,242.0968933105468800,41.5663490295410160,23.8841304779052730,28.0429191589355470,70,126,91,84,59,15115,2221990756,2240825398,2256013650,2158550966,2184530715,2197148763,2199699812,2153693842,78,2,15,18910
1346715265,5808,56.2299995422363300,23.9698009490966800,35.1778984069824200,242.0807037353515600,38.8785018920898440,23.9674491882324220,28.0102500915527340,68,126,96,85,55,15106,2207171885,2219983990,2229553645,2156053174,2178497088,2187978852,2189186130,2152374025,66,2,15,31159
1346715320,5810,54.6399993896484400,24.1462993621826170,35.1839981079101560,241.9519042968750000,34.0350799560546900,24.1176795959472660,27.9559707641601560,68,125,91,85,59,15112,2173060562,2176304795,2178129664,2150612772,2160910720,2163554962,2163388763,2149093494,582,3,15,21538
1346715375,5806,53.3800010681152340,24.1865997314453120,35.1874008178710940,242.3394927978515600,31.7350196838378900,24.1890602111816400,27.9104404449462900,67,125,91,88,60,15095,2171577472,2174267556,2175585499,2150367853,2160250121,2162503853,2162166235,2148946176,1073,2,16,30891
1346715466,5810,50.9099998474121100,24.3456993103027340,35.1980018615722660,243.1018981933593800,27.2857704162597660,24.3272209167480470,27.8216896057128900,68,128,91,87,59,15113,2184270070,2188804553,2191117248,2152584265,2167435565,2171173613,2170280530,2150110930,872,2,16,51082
1346715521,5806,48.4799995422363300,24.5408992767334000,35.2056999206543000,243.2940063476562500,20.4505100250244140,24.5396709442138670,27.7291107177734380,67,128,94,85,58,15108,2197207936,2203286820,2206432219,2155191076,2175005705,2180126052,2178504146,2151362166,765,2,17,49724
1346715576,5806,46.4000015258789060,24.6700992584228500,35.2113990783691400,243.7570953369140600,16.7560806274414060,24.6546096801757800,27.6633701324462900,68,127,92,89,58,15107,2248068726,2263277376,2272656091,2166826313,2199789321,2210321801,2206602432,2156064210,1221,2,16,64972
1346715631,5810,44.4900016784668000,24.6884994506835940,35.2104988098144500,243.9566955566406200,14.8069295883178710,24.7152690887451170,27.6306495666503900,67,125,96,85,58,15106,2261328685,2276871396,2285939803,2169547776,2213078765,2226214601,2221398217,2158186459,1164,1,16,34527
1346715686,5807,42.7400016784668000,24.9102993011474600,35.2010993957519500,243.4586029052734400,8.8317184448242190,24.9013805389404300,27.5791606903076170,72,124,93,86,57,15092,2295429668,2316076041,2328354880,2178716772,2232289545,2248814061,2242271040,2161823195,1218,2,16,20662
1346715765,5809,40.4799995422363300,25.1998004913330080,35.1785011291503900,242.2250976562500000,-0.6527333855628967,25.1972198486328120,27.5170898437500000,70,126,92,85,54,15083,2319357961,2341387529,2353823113,2186578861,2246357074,2263510043,2253834779,2164408996,1361,2,15,38599
1346715820,5806,38.6599998474121100,25.3460006713867200,35.1825981140136700,241.1835021972656200,-5.1480078697204590,25.3376102447509770,27.5079498291015620,60,124,94,85,57,15107,2319652315,2338774811,2349664155,2190191972,2251686244,2268133888,2257240868,2165358482,308,1,16,26517
1346715875,5809,37.3800010681152340,25.4181995391845700,35.1938018798828100,240.0626068115234400,-8.0018606185913090,25.4268093109130860,27.5224494934082030,61,133,93,85,58,15117,2333172909,2353835721,2365770651,2195862006,2259503643,2274978578,2261680256,2166838464,44,2,15,51315